[[{"header":{"parameterUnit":"m.s-1","parameterCategory":1,"la1":30.2991,"la2":30.254,"lo1":-89.0895,"lo2":-89.0444,"dy":0.0017,"dx":0.0017,"nx":28,"ny":28,"refTime":"2025-11-30T03:00:00:Z","depth":0,"parameterNumber":2,"parameterNumberName":"U-component_of_WINDS"},"data":[0,0,0,0,0,0,0,0,0,0,0,0,0,0,0,0,0,0,0,0,0,0,0,0,0,0,0,0,0,0,0,0,0,0,0,0,0,0,0,0,0,0,0,0,0,0,0,0,0,0,0,0,0,0,0,0,0,0,-6.9542,-6.9544,0,-6.977,-6.9772,-6.9775,-6.9723,-6.9719,-6.9714,-6.971,-6.9944,-6.9953,-6.9964,0,0,0,0,0,0,0,0,0,0,0,0,0,-6.9061,-6.907,-6.9541,-6.9544,-6.9547,-6.9769,-6.9773,-6.9776,-6.9724,-6.9718,-6.9713,-6.9708,-6.994,-6.9952,-6.9965,0,0,0,0,0,0,0,0,0,0,0,0,0,-6.9278,-6.9073,-6.9541,-6.9548,-6.9551,-6.9769,-6.9773,-6.9777,-6.9725,-6.9718,-6.9712,-6.9706,-6.9936,-6.9951,-6.9966,-7.0191,0,0,-7.0013,-7.002,0,0,0,0,0,0,0,0,-6.9265,-6.9295,-6.9544,-6.9548,-6.9552,-6.9711,-6.9689,-6.9916,-6.9726,-6.9659,-6.971,-6.9702,-6.9872,-6.9892,-6.9949,-7.0202,-7.0212,-7.0015,-7.0024,-7.0031,-7.0035,0,0,0,0,0,0,0,-6.9251,-6.9285,-6.9632,-6.9548,-6.9552,-6.954,-6.9564,-6.9732,-6.9799,-6.9664,-6.9661,-6.9689,-6.9872,-6.9934,-6.9954,-7.0215,-7.0014,-7.0028,-7.0037,-7.0043,-7.0665,-7.0672,0,0,0,0,0,0,-6.9232,-6.9273,-6.9624,-6.9639,-6.939,-6.9554,-6.958,-6.9667,-6.9797,-6.981,-6.9694,-6.9685,-6.9911,-6.9936,-6.9962,-7.0232,-7.003,-7.0045,-7.0054,-7.0658,-7.0667,-7.0675,0,0,0,0,0,0,-6.9222,-6.9264,-6.9615,-6.9455,-6.9499,-6.9569,-6.9666,-6.9674,-6.9736,-6.9819,-6.9831,-6.9745,-6.9907,-6.994,-7.0135,-7.024,-7.0052,-7.0066,-7.0649,-7.0661,-7.0671,-7.0776,0,0,0,0,0,0,-6.9209,-6.9261,-6.9346,-6.9458,-6.9508,-6.9784,-6.9673,-6.9684,-6.9763,-6.9754,-6.987,-6.9883,-6.9904,-7.0112,-7.015,-7.0258,-7.0078,-7.064,-7.0654,-7.0667,-7.0763,-7.0789,-7.0811,0,0,0,0,0,-6.9192,-6.9367,-6.9351,-6.9394,-6.9616,-6.979,-6.9819,-6.984,-6.9772,-6.9858,-6.9912,-6.9879,-7.0223,-7.0132,-7.0174,-7.0288,-7.0633,-7.065,-7.0666,-7.0753,-7.0784,-7.0811,0,0,0,0,0,0,-6.9265,-6.9381,-6.9365,-6.9581,-6.9676,-6.9781,-6.989,-6.9873,-6.9988,-6.9975,-6.9997,-7.0023,-7.0221,-7.0275,-7.0171,-7.0513,-7.0419,-7.0444,-7.047,-7.0501,-7.0524,-7.0505,-7.009,0,0,0,0,0,-6.9307,-6.9439,-6.9533,-6.9715,-6.9764,-6.9819,-6.9896,-6.9904,-7.0003,-7.0043,-7.0111,-7.0208,-7.0338,-7.0423,-7.0547,-7.0773,-7.0797,-7.0872,-7.0896,-7.0916,-7.0936,-7.1059,-7.1093,-7.0728,-7.0728,-7.0728,0,0,-6.9393,-6.9473,-6.9555,-6.9732,-6.9806,-6.9941,-6.9853,-7.0,-7.0101,-7.0065,-7.0251,-7.0306,-7.0416,-7.0627,-7.0723,-7.0678,-7.1043,-7.0937,-7.0951,-7.0961,-7.1079,-7.1114,-7.1144,-7.074,-7.0738,-7.0736,0,0,-6.9619,-6.9694,-6.9853,-6.9931,-7.0045,-7.0082,-7.012,-7.0229,-7.0263,-7.0452,-7.0428,-7.0549,-7.0773,-7.0852,-7.0922,-7.1182,-7.1156,-7.1223,-7.1346,-7.1466,-7.1494,-7.152,-7.1611,-7.1643,-7.1244,-7.1244,-7.1245,0,-6.9712,-6.9915,-6.9937,-7.0087,-7.0165,-7.0142,-7.0303,-7.0377,-7.0526,-7.0581,-7.0529,-7.081,-7.0883,-7.1111,-7.1175,-7.1233,-7.1277,-7.1207,-7.1488,-7.1514,-7.1538,-7.1625,-7.166,-7.1251,-7.1251,-7.125,-7.1249,0,-7.0022,-7.0164,-7.0279,-7.0424,-7.0516,-7.0671,-7.0717,-7.0808,-7.081,-7.0852,-7.1045,-7.1133,-7.1274,-7.133,-7.1333,-7.156,-7.1528,-7.1483,-7.1387,-7.158,-7.1661,-7.1695,-7.1262,-7.1259,-7.1257,-7.1255,0,0,-7.0295,-7.0454,-7.0495,-7.0561,-7.0688,-7.0797,-7.0953,-7.1092,-7.1168,-7.1274,-7.1403,-7.1595,-7.1554,-7.1634,-7.1646,-7.1752,-7.1951,-7.1693,-7.1696,-7.1736,-7.2204,-7.2234,-7.2273,-7.1936,-7.1943,-7.1948,-7.2194,0,-7.053,-7.0802,-7.0828,-7.1072,-7.1202,-7.1184,-7.1319,-7.1412,-7.1457,-7.1575,-7.1625,-7.1759,-7.1697,-7.1744,-7.1849,-7.1904,-7.2044,-7.1888,-7.2055,-7.2061,-7.2024,-7.2316,-7.2348,-7.2575,-7.2226,-7.2232,-7.2236,0,-7.0839,-7.0954,-7.121,-7.132,-7.1376,-7.1496,-7.1626,-7.174,-7.1845,-7.1871,-7.1962,-7.1961,-7.2121,-7.2024,-7.2244,-7.2137,-7.2208,-7.2247,-7.2256,-7.2269,-7.2157,-7.2333,-7.2649,-7.2681,-7.2287,-7.2283,-7.2279,0,-7.1008,-7.1228,-7.141,-7.1467,-7.16,-7.1685,-7.1745,-7.1844,-7.1927,-7.2042,-7.2095,-7.2227,-7.2299,-7.2402,-7.2437,-7.2363,-7.2656,-7.2561,-7.268,-7.2679,-7.2738,-7.2733,-7.3066,-7.2792,-7.2791,-7.279,-7.279,0,-7.1265,-7.1422,-7.1488,-7.1599,-7.1775,-7.1805,-7.1979,-7.2034,-7.2123,-7.2245,-7.224,-7.2354,-7.2396,-7.2519,-7.2548,-7.2725,-7.2759,-7.2783,-7.2788,-7.2781,-7.2778,-7.2825,-7.2808,-7.2799,-7.2797,-7.2796,-7.2794,0,-7.1481,-7.1532,-7.1728,-7.184,-7.1872,-7.1996,-7.2091,-7.2199,-7.2245,-7.2399,-7.2437,-7.2509,-7.2652,-7.27,-7.2874,-7.2893,-7.3099,-7.3093,-7.3063,-7.3063,-7.3178,-7.3165,-7.3549,-7.36,-7.3295,-7.3298,-7.3301,0,-7.1639,-7.1759,-7.1885,-7.1966,-7.2029,-7.2161,-7.2245,-7.2282,-7.237,-7.2501,-7.2593,-7.2736,-7.2851,-7.3083,-7.315,-7.3283,-7.3277,-7.3403,-7.3297,-7.3286,-7.3275,-7.3266,-7.3278,-7.3421,-7.3424,-7.3427,-7.3429,0,-7.1913,-7.1933,-7.2055,-7.2187,-7.2288,-7.2394,-7.2496,-7.2564,-7.2615,-7.2716,-7.2863,-7.2953,-7.3131,-7.3273,-7.341,-7.3471,-7.3459,-7.3463,-7.3497,-7.3488,-7.3465,-7.3476,-7.3113,-7.3452,-7.345,-7.3448,-7.3447,-7.3446,-7.2102,-7.2208,-7.2313,-7.245,-7.2531,-7.2628,-7.2734,-7.2794,-7.2918,-7.3065,-7.3081,-7.3239,-7.3345,-7.3527,-7.3596,-7.3721,-7.3685,-7.3735,-7.3747,-7.3758,-7.3765,-7.3449,-7.3747,-7.3746,-7.3745,-7.3745,-7.3745,0,-7.2372,-7.244,-7.2566,-7.271,-7.2818,-7.28,-7.2913,-7.3004,-7.3143,-7.3243,-7.3358,-7.3528,-7.3666,-7.3746,-7.3885,-7.3969,-7.3967,-7.4004,-7.3996,-7.401,-7.379,-7.3745,-7.4003,-7.4003,-7.4003,-7.4003,-7.4003,-7.4003,-7.2525,-7.2703,-7.2737,-7.2956,-7.3023,-7.3178,-7.3244,-7.3333,-7.3413,-7.3603,-7.3718,-7.377,-7.3862,-7.4008,-7.4134,-7.4154,-7.4204,-7.4244,-7.426,-7.4052,-7.4026,-7.4,-7.3958,-7.4256,-7.4256,-7.4469,-7.4471,-7.4472]},{"header":{"parameterUnit":"m.s-1","parameterCategory":1,"la1":30.2991,"la2":30.254,"lo1":-89.0895,"lo2":-89.0444,"dy":0.0017,"dx":0.0017,"nx":28,"ny":28,"refTime":"2025-11-30T03:00:00:Z","depth":0,"parameterNumber":3,"parameterNumberName":"V-component_of_WINDS"},"data":[0,0,0,0,0,0,0,0,0,0,0,0,0,0,0,0,0,0,0,0,0,0,0,0,0,0,0,0,0,0,0,0,0,0,0,0,0,0,0,0,0,0,0,0,0,0,0,0,0,0,0,0,0,0,0,0,0,0,3.3073,3.3076,0,3.3314,3.3317,3.332,3.3234,3.3229,3.3223,3.3218,3.3471,3.3483,3.3494,0,0,0,0,0,0,0,0,0,0,0,0,0,3.2545,3.2555,3.3073,3.3076,3.3079,3.3314,3.3317,3.332,3.3235,3.3228,3.3222,3.3216,3.3467,3.3481,3.3495,0,0,0,0,0,0,0,0,0,0,0,0,0,3.2779,3.2558,3.3072,3.3064,3.3066,3.3313,3.3317,3.3321,3.3236,3.3228,3.322,3.3213,3.3463,3.348,3.3497,3.3768,0,0,3.3551,3.3559,0,0,0,0,0,0,0,0,3.2766,3.2799,3.3062,3.3065,3.3068,3.3236,3.3224,3.3471,3.3238,3.3172,3.3218,3.3209,3.34,3.3422,3.3485,3.378,3.3791,3.3553,3.3564,3.3571,3.3576,0,0,0,0,0,0,0,3.275,3.2788,3.3168,3.3066,3.307,3.3051,3.3075,3.327,3.3329,3.3177,3.3171,3.3201,3.34,3.3469,3.3491,3.3795,3.3552,3.3568,3.3579,3.3586,3.4329,3.4338,0,0,0,0,0,0,3.2731,3.2775,3.3161,3.3176,3.2894,3.3067,3.3094,3.319,3.3326,3.3339,3.3208,3.3196,3.3442,3.347,3.3499,3.383,3.3571,3.3588,3.3598,3.432,3.4331,3.4341,0,0,0,0,0,0,3.272,3.2767,3.3151,3.2974,3.3021,3.3085,3.3193,3.3199,3.3268,3.3349,3.336,3.3267,3.3437,3.3474,3.3703,3.3837,3.3596,3.3612,3.4309,3.4323,3.4336,3.449,0,0,0,0,0,0,3.2706,3.2763,3.2865,3.2977,3.3031,3.3349,3.3201,3.321,3.3298,3.3285,3.3408,3.342,3.3434,3.3677,3.372,3.3857,3.3625,3.4298,3.4316,3.4332,3.4473,3.4507,3.4536,0,0,0,0,0,3.2687,3.2899,3.2871,3.2918,3.3159,3.3357,3.3388,3.3398,3.3309,3.3414,3.3466,3.3416,3.3814,3.3701,3.3749,3.3893,3.4289,3.431,3.433,3.4459,3.4501,3.4536,0,0,0,0,0,0,3.2803,3.2913,3.2883,3.3137,3.3238,3.3342,3.3474,3.344,3.357,3.3553,3.3561,3.3589,3.3826,3.3881,3.3753,3.4165,3.4039,3.407,3.412,3.4161,3.4191,3.4175,3.364,0,0,0,0,0,3.2858,3.3007,3.3096,3.3311,3.3363,3.341,3.3496,3.3495,3.3601,3.3644,3.3712,3.3819,3.3968,3.4067,3.4208,3.4479,3.4508,3.4603,3.4634,3.4659,3.4688,3.4841,3.4885,3.4409,3.4408,3.4408,0,0,3.2973,3.3052,3.3146,3.3337,3.3415,3.3572,3.3447,3.3617,3.3735,3.367,3.3891,3.3945,3.4064,3.4317,3.4431,3.4371,3.4825,3.4686,3.4705,3.4721,3.4867,3.4912,3.4952,3.4423,3.442,3.4418,0,0,3.3265,3.3337,3.3527,3.3608,3.3728,3.3758,3.3803,3.3913,3.3947,3.4167,3.4123,3.4264,3.4519,3.4608,3.4686,3.5013,3.4974,3.5059,3.5226,3.5374,3.5412,3.5445,3.5567,3.561,3.5086,3.5086,3.5087,0,3.3395,3.3627,3.363,3.3805,3.3893,3.3839,3.4034,3.4112,3.4273,3.4336,3.4264,3.4587,3.4662,3.4937,3.5017,3.5081,3.5137,3.5047,3.5406,3.5439,3.5471,3.5587,3.5632,3.5096,3.5095,3.5094,3.5093,0,3.3783,3.3946,3.4085,3.4241,3.4343,3.4527,3.456,3.4664,3.4654,3.4692,3.492,3.5009,3.517,3.5234,3.5226,3.551,3.5469,3.5402,3.5276,3.5526,3.5636,3.568,3.511,3.5107,3.5104,3.5101,0,0,3.4157,3.4312,3.4364,3.4436,3.4564,3.4691,3.4874,3.5029,3.5121,3.5233,3.539,3.5608,3.5548,3.5637,3.5638,3.5767,3.6027,3.5685,3.5688,3.575,3.6351,3.6405,3.6456,3.6,3.6008,3.6015,3.6343,0,3.4463,3.4783,3.4791,3.5086,3.5239,3.519,3.535,3.5448,3.5489,3.5626,3.5671,3.5828,3.5734,3.5788,3.5914,3.5969,3.6149,3.5945,3.6151,3.6158,3.6127,3.6512,3.6569,3.6874,3.6385,3.6392,3.6397,0,3.4863,3.4989,3.5298,3.5408,3.5472,3.5616,3.5761,3.5891,3.6003,3.6023,3.6124,3.6106,3.6297,3.6161,3.6427,3.6288,3.6372,3.6412,3.6424,3.6448,3.6296,3.6551,3.6971,3.7019,3.6464,3.6459,3.6454,0,3.5112,3.5357,3.5575,3.5638,3.5769,3.5872,3.5932,3.6035,3.6129,3.6256,3.6319,3.6466,3.6549,3.6665,3.669,3.6588,3.6957,3.6822,3.6984,3.6984,3.7068,3.7063,3.7512,3.7114,3.7113,3.7112,3.7111,0,3.5456,3.5649,3.5689,3.5824,3.604,3.6048,3.6262,3.6314,3.6406,3.6553,3.6519,3.6658,3.6678,3.6823,3.6843,3.7063,3.7099,3.7124,3.7128,3.7131,3.7128,3.719,3.7171,3.7124,3.7121,3.7119,3.7117,0,3.5772,3.5806,3.6042,3.6147,3.6178,3.6333,3.6424,3.6555,3.6591,3.6778,3.6822,3.6881,3.705,3.7084,3.7283,3.7297,3.756,3.754,3.7523,3.7523,3.7684,3.7671,3.8192,3.8264,3.7814,3.7818,3.7821,0,3.5991,3.6139,3.626,3.6355,3.642,3.6573,3.667,3.6683,3.6786,3.6924,3.704,3.7204,3.7337,3.761,3.7672,3.7826,3.7813,3.7985,3.7836,3.7835,3.7822,3.7815,3.7833,3.8015,3.802,3.8024,3.8027,0,3.638,3.639,3.6529,3.6676,3.6792,3.6908,3.7018,3.7098,3.7127,3.7244,3.7416,3.7519,3.7723,3.7889,3.8043,3.8107,3.8076,3.8073,3.8119,3.8126,3.8112,3.8127,3.7607,3.8062,3.8058,3.8056,3.8054,3.8053,3.6659,3.6789,3.6896,3.7053,3.7137,3.7242,3.7371,3.7424,3.7566,3.7733,3.7732,3.7922,3.8032,3.8235,3.8309,3.8459,3.8405,3.8471,3.8489,3.8507,3.8524,3.8083,3.8486,3.8485,3.8484,3.8484,3.8483,0,3.705,3.7116,3.7261,3.7417,3.7541,3.7496,3.7616,3.7725,3.7891,3.7995,3.8127,3.8327,3.8487,3.8562,3.8722,3.8828,3.8818,3.887,3.8866,3.8882,3.856,3.8507,3.8876,3.8876,3.8876,3.8876,3.8876,3.8876,3.7269,3.7489,3.7512,3.7775,3.7839,3.8024,3.8098,3.8195,3.8279,3.8503,3.8636,3.8682,3.8777,3.8943,3.909,3.9108,3.9171,3.9232,3.9244,3.8944,3.8904,3.8866,3.8816,3.9245,3.9245,3.9554,3.9557,3.9559]}]]